Regional Weather Roundup
Issued by NWS

Home | Current Version | Previous Version | Text Only | Print | Product List | Glossary Off
Versions: 1 2 3 4 5 6 7 8 9 10 11 12 13 14 15 16 17 18 19 20 21 22 23 24 25 26 27 28 29 30 31 32 33 34 35 36 37 38 39 40 41 42 43 44 45 46 47 48 49 50

000
ASUS43 KOAX 181310
RWRNE

WEATHER ROUNDUP FOR NEBRASKA
NATIONAL WEATHER SERVICE OMAHA NE
700 AM CST THU DEC 18 2014

NOTES: SATELLITE DATA IS BEING USED TO AUGMENT CLOUD COVER ABOVE
       12000 FEET.
       "FAIR" INDICATES FEW OR NO CLOUDS BELOW 12,000 FEET WITH NO
       SIGNIFICANT WEATHER AND/OR OBSTRUCTIONS TO VISIBILITY.

  * THESE STATIONS DO NOT REPORT WEATHER SUCH AS RAIN...SNOW OR FOG.

NEZ001>004-019>022-054>056-181400-
NEBRASKA PANHANDLE

CITY           SKY/WX    TMP DP  RH WIND       PRES   REMARKS
SCOTTSBLUFF    FOG        8   5  87 NW7       30.03R VSB 1/2 WCI  -3
ALLIANCE       PTCLDY    -1  -6  79 W7        30.00S WCI -14
CHADRON        PTCLDY     3  -1  83 SW7       30.03R WCI  -9
KIMBALL        CLEAR     20  15  83 CALM      29.97S
SIDNEY         PTCLDY     5   1  83 CALM      30.00R
$$

NEZ057>060-069>072-079>082-181400-
SOUTHWEST NEBRASKA

CITY           SKY/WX    TMP DP  RH WIND       PRES   REMARKS
NORTH PLATTE   CLOUDY    24  22  91 SW7       30.09R WCI  16
IMPERIAL       CLOUDY    25  23  92 W5        30.06R WCI  19
LEXINGTON      CLOUDY    25  23  92 S3        30.12R
MCCOOK         CLOUDY    23  21  92 CALM      30.11R
OGALLALA       CLOUDY    24  24  97 W7        30.06R FOG     WCI  16
$$

NEZ005>010-023>029-035>040-094-181400-
NORTH CENTRAL NEBRASKA

CITY           SKY/WX    TMP DP  RH WIND       PRES   REMARKS
VALENTINE      CLOUDY    25  21  85 CALM      30.06R
AINSWORTH      CLOUDY    24  23  97 SW3       30.08R
BROKEN BOW     CLOUDY    24  23  96 S5        30.10S FOG     WCI  18
O`NEILL        CLOUDY    23  22  96 CALM      30.14S
ORD            CLOUDY    23  20  88 SE6       30.13R WCI  16
THEDFORD       CLOUDY    26  24  93 W9        30.07R WCI  16
$$

NEZ041-046>049-061>064-073>077-083>087-181400-
SOUTH CENTRAL NEBRASKA

CITY           SKY/WX    TMP DP  RH WIND       PRES   REMARKS
GRAND ISLAND   CLOUDY    23  21  92 SE3       30.17S
AURORA         FLURRIES  24  23  94 SE5       30.18R WCI  19
HASTINGS       CLOUDY    24  21  88 SE6       30.15R WCI  17
HEBRON         LGT SNOW  26  24  92 CALM      30.19R
HOLDREGE       CLOUDY    24  22  93 SE3       30.13R
KEARNEY *      CLOUDY    25  21  86 E7        30.13S WCI  17
YORK           CLOUDY    25 N/A N/A CALM      30.19R
$$

NEZ011>018-030>034-042>045-181400-
NORTHEAST NEBRASKA

CITY           SKY/WX    TMP DP  RH WIND       PRES   REMARKS
NORFOLK        CLOUDY    25  22  88 CALM      30.19R
ALBION         CLOUDY    23  20  89 SE5       30.17S WCI  17
BLAIR          FLURRIES  27  23  87 E3        30.21R
COLUMBUS *     CLOUDY    25  18  74 CALM      30.21R
FREMONT        CLOUDY    28  24  85 CALM      30.22R
TEKAMAH        CLOUDY    26  21  81 E3        30.24R
WAYNE          CLOUDY    25  21  84 SE6       30.21R WCI  18
$$

NEZ050>053-065>068-078-088>093-181400-
SOUTHEAST NEBRASKA

CITY           SKY/WX    TMP DP  RH WIND       PRES   REMARKS
LINCOLN        LGT SNOW  26  24  92 E3        30.23R FOG
OMAHA EPPLEY   FLURRIES  27  22  81 SE5       30.25R WCI  22
BEATRICE       LGT SNOW  26  25  96 CALM      30.20R
FALLS CITY     LGT SNOW  27  25  92 NE5       30.22S FOG     WCI  22
NEBRASKA CITY  LGT SNOW  27  27 100 E3        30.22R
PLATTSMOUTH    LGT SNOW  26  24  89 E5        30.22R WCI  21
$$

NEZ044-045-051>053-067-181400-
OMAHA AREA

CITY           SKY/WX    TMP DP  RH WIND       PRES   REMARKS
OMAHA EPPLEY   FLURRIES  27  22  81 SE5       30.25R WCI  22
BLAIR          FLURRIES  27  23  87 E3        30.21R
FREMONT        CLOUDY    28  24  85 CALM      30.22R
MILLARD        LGT SNOW  28  23  82 SE6       30.23R WCI  21
OFFUTT AFB     LGT SNOW  26  24  91 E3        30.23R FOG
PLATTSMOUTH    LGT SNOW  26  24  89 E5        30.22R WCI  21
WAHOO          FLURRIES  27  24  89 SE6       30.22R WCI  20
$$



USA.gov is the U.S. government's official web portal to all federal, state and local government web resources and services.